Home > Weather > Victoria > Past weeks

Flag for USA Past Weather in Victoria, Texas, USA — Yesterday and Last 2 Weeks

Now
78 °F

Fog.


Feels Like: 81 °F
Forecast: 78 / 88 °F
Wind: 3 mph from Southeast

Location: Victoria Regional Airport

Current Time: May 25, 2016 at 8:03:56 AM

Latest Report: May 25, 2016 at 6:51 AM


Visibility: 4 mi

Pressure: 29.97 "Hg

Humidity: 93%

Dew Point: 76 °F

Location of VictoriaLocation

Past Weather in Victoria — Graph

°F

Victoria Temperature Yesterday

Maximum temperature yesterday: 87 °F (at 3:51 PM)
Minimum temperature yesterday: 75 °F (at 12:51 AM)
Average temperature yesterday: 81 °F

High & Low Weather Summary for the Past Weeks

 TemperatureHumidityPressure
High90 °F (May 13, 3:51 PM)100% (May 14, 7:58 AM)30.16 "Hg (May 14, 7:58 AM)
Low64 °F (May 19, 11:55 AM)48% (May 13, 3:51 PM)29.79 "Hg (May 16, 4:51 PM)
Average76 °F83%29.95 "Hg
* Reported May 10 6:01 AM — May 25 6:51 AM, Victoria, Weather by CustomWeather, © 2016

Note: Actual official high and low records may vary slightly from our data, if they occured in-between our weather recording intervals... More about our weather records

Advertising

Victoria Weather History for the Previous 24 Hours

Scroll right to see more
 ConditionsComfort  
Time TempWeatherWind HumidityBarometerVisibility
6:51 AM
Wed, May 25
78 °FFog.3 mph93%29.97 "Hg4 mi
5:51 AM78 °FFog.5 mph93%29.95 "Hg6 mi
4:51 AM77 °FFog.7 mph94%29.95 "Hg5 mi
3:51 AM78 °FFog.7 mph93%29.95 "Hg5 mi
2:51 AM77 °FFog.6 mph96%29.95 "Hg4 mi
1:51 AM78 °FFog.7 mph93%29.96 "Hg5 mi
12:51 AM78 °FFog.9 mph93%29.96 "Hg6 mi
12:00 AM79 °FFog.13 mph90%29.96 "Hg6 mi
10:51 PM
Tue, May 24
79 °FOvercast.9 mph90%29.97 "Hg8 mi
9:51 PM79 °FOvercast.8 mph88%29.95 "Hg8 mi
8:51 PM79 °FOvercast.8 mph88%29.95 "Hg10 mi
7:51 PM81 °FScattered clouds.10 mph79%29.93 "Hg10 mi
6:51 PM83 °FScattered clouds.10 mph70%29.92 "Hg10 mi
5:51 PM84 °FScattered clouds.16 mph70%29.92 "Hg10 mi
4:51 PM85 °FBroken clouds.18 mph70%29.93 "Hg10 mi
3:51 PM87 °FLight rain. Scattered clouds.21 mph67%29.93 "Hg10 mi
2:51 PM86 °FBroken clouds.14 mph72%29.94 "Hg10 mi
2:04 PM86 °FPartly sunny.14 mph72%29.95 "Hg10 mi
12:51 PM85 °FOvercast.15 mph70%29.95 "Hg10 mi
11:51 AM86 °FOvercast.17 mph70%29.95 "Hg10 mi
10:51 AM84 °FMore clouds than sun.17 mph74%29.94 "Hg10 mi
9:51 AM82 °FCloudy.14 mph79%29.93 "Hg10 mi
8:58 AM80 °FBroken clouds.13 mph87%29.93 "Hg8 mi
Weather by CustomWeather, © 2016

See weather overviewHow to use our weather pages